Home > Weather > Karaganda > Past weeks

Flag for Kazakhstan Past Weather in Karaganda, Kazakhstan — Yesterday and Last 2 Weeks

Now
73 °F

Broken clouds.


Feels Like: 77 °F
Forecast: 56 / 79 °F
Wind: 8 mph from West

Location: Karaganda

Current Time: Jul 25, 2016 at 8:14:20 PM

Latest Report: Jul 25, 2016 at 7:30 PM


Visibility: N/A

Pressure: 29.71 "Hg (27.87 "Hg at 555m altitude)

Humidity: 57%

Dew Point: 57 °F

Location of KaragandaLocation

Past Weather in Karaganda — Graph

°F

Karaganda Temperature Yesterday

Maximum temperature yesterday: 79 °F (at 2:30 PM)
Minimum temperature yesterday: 57 °F (at 5:30 AM)
Average temperature yesterday: 68 °F

High & Low Weather Summary for the Past Weeks

 TemperatureHumidityPressure
High90 °F (Jul 13, 3:30 PM)100% (Jul 17, 10:00 PM)29.98 "Hg (Jul 17, 10:00 PM)
Low50 °F (Jul 11, 3:30 AM)21% (Jul 13, 2:30 PM)29.45 "Hg (Jul 18, 10:30 AM)
Average67 °F76%29.69 "Hg
* Reported Jul 10 7:00 PM — Jul 25 7:00 PM, Karaganda, Weather by CustomWeather, © 2016

Note: Actual official high and low records may vary slightly from our data, if they occured in-between our weather recording intervals... More about our weather records

Advertising

Karaganda Weather History for the Previous 24 Hours

Scroll right to see more
 ConditionsComfort  
Time TempWeatherWind HumidityBarometerVisibility
7:00 PM
Mon, Jul 25
75 °FMore clouds than sun.8 mph54%29.68 "HgN/A
6:30 PM72 °FMore clouds than sun.1 mph65%29.68 "HgN/A
6:00 PM72 °FMore clouds than sun.6 mph61%29.71 "HgN/A
5:30 PM72 °FMore clouds than sun.8 mph69%29.71 "HgN/A
5:00 PM72 °FMore clouds than sun.15 mph69%29.71 "HgN/A
4:30 PM72 °FMore clouds than sun.13 mph69%29.68 "HgN/A
4:00 PM75 °FMore clouds than sun.22 mph61%29.71 "HgN/A
3:30 PM77 °FMore clouds than sun.22 mph57%29.68 "HgN/A
3:00 PM79 °FMore clouds than sun.20 mph54%29.68 "HgN/A
2:30 PM79 °FMore clouds than sun.15 mph54%29.68 "HgN/A
2:00 PM81 °FSunny.15 mph48%29.68 "Hg10 mi
1:30 PM82 °FSunny.17 mph42%29.68 "Hg10 mi
1:00 PM81 °FPassing clouds.3 mph45%29.68 "HgN/A
12:30 PM81 °FSunny.17 mph45%29.68 "Hg10 mi
12:00 PM79 °FBroken clouds.15 mph51%29.68 "HgN/A
11:30 AM73 °FBroken clouds.15 mph65%29.68 "HgN/A
11:00 AM73 °FBroken clouds.15 mph65%29.68 "HgN/A
10:30 AM72 °FMore clouds than sun.17 mph69%29.68 "HgN/A
10:00 AM72 °FMore clouds than sun.17 mph69%29.68 "HgN/A
9:30 AM72 °FBroken clouds.17 mph69%29.68 "HgN/A
9:00 AM72 °FBroken clouds.10 mph73%29.68 "HgN/A
8:30 AM72 °FBroken clouds.10 mph73%29.68 "HgN/A
8:00 AM68 °FBroken clouds.6 mph78%29.68 "HgN/A
7:30 AM66 °FBroken clouds.1 mph88%29.68 "HgN/A
7:00 AM63 °FPartly sunny.3 mph94%29.68 "HgN/A
6:30 AM64 °FThundershowers. Partly sunny.6 mph83%29.68 "HgN/A
6:00 AM64 °FThundershowers. Passing clouds.3 mph83%29.68 "HgN/A
5:30 AM63 °FPartly cloudy.3 mph88%29.65 "HgN/A
5:00 AM64 °FPartly cloudy.6 mph83%29.65 "HgN/A
4:30 AM64 °FPassing clouds.8 mph83%29.65 "HgN/A
4:00 AM64 °FPassing clouds.10 mph83%29.65 "HgN/A
3:30 AM64 °FPassing clouds.10 mph83%29.68 "HgN/A
3:00 AM63 °FPassing clouds.3 mph88%29.68 "HgN/A
2:30 AM63 °FClear.No wind88%29.68 "Hg10 mi
2:00 AM63 °FClear.3 mph88%29.71 "Hg5 mi
1:30 AM59 °FClear.3 mph100%29.71 "Hg5 mi
1:00 AM59 °FClear.3 mph94%29.71 "Hg5 mi
12:30 AM61 °FClear.6 mph94%29.71 "Hg5 mi
12:00 AM61 °FClear.3 mph94%29.74 "Hg4 mi
11:30 PM
Sun, Jul 24
63 °FClear.3 mph94%29.74 "Hg4 mi
11:00 PM63 °FClear.6 mph94%29.74 "Hg4 mi
10:30 PM64 °FClear.3 mph88%29.74 "Hg4 mi
10:00 PM64 °FClear.6 mph94%29.74 "Hg4 mi
9:30 PM66 °FClear.6 mph88%29.74 "Hg4 mi
9:00 PM66 °FClear.3 mph88%29.74 "Hg4 mi
8:30 PM72 °FSunny.3 mph73%29.74 "Hg10 mi
8:00 PM75 °FSunny.1 mph54%29.74 "Hg10 mi
Weather by CustomWeather, © 2016

See weather overviewHow to use our weather pages